SCP
0 0 0 0 0 0 0 0 0 0 0 0 0 0 0 0 0 0 0 0 0 0 0 0 0 0 0 0 0 0 0 0 0 0 0 0 0 0 0 0 0 0 0
0 0 0 0 0 0 0 0 0 0 0 0 0 0 0 0 0 0 0 0 0 0 0 0 0 0 0 0 0 0 0 0 0 0 0 1 0 0 0 0 0 0 0
0 0 0 0 0 0 0 0 0 0 0 0 0 0 0 0 0 0 0 0 0 0 0 0 0 0 0 0 0 0 0 0 0 0 0 1 1 0 0 0 0 0 0
0 0 0 0 0 0 0 0 0 0 0 0 0 0 0 0 0 0 0 0 0 0 0 0 0 0 0 0 0 0 0 0 0 0 0 1 0 0 0 0 0 0 0
0 0 0 0 0 0 0 0 0 0 0 0 0 0 0 0 0 0 0 0 0 0 0 0 0 0 0 0 0 0 0 0 0 0 0 1 0 0 0 0 0 0 0
0 0 0 0 0 0 0 0 0 0 0 0 0 0 0 0 0 0 0 0 0 0 0 0 0 0 0 0 0 0 0 0 0 0 1 0 0 0 0 0 0 0 0
0 0 0 0 0 0 0 0 0 0 0 0 0 0 0 0 0 0 0 0 0 0 0 0 0 0 0 0 0 0 0 0 0 0 0 0 0 0 0 0 0 0 0
0 0 0 0 0 0 0 0 0 0 0 0 0 0 0 0 0 0 0 0 0 0 0 0 0 0 0 0 0 0 0 0 0 0 0 0 0 0 0 0 0 0 0
0 0 0 0 0 0 0 0 0 0 0 0 0 0 0 0 0 0 0 0 0 0 0 0 0 0 0 0 0 0 0 0 0 0 -0 0 0 0 0 0 0 0 0
0 0 0 0 0 0 0 0 0 0 0 0 0 0 0 0 0 0 0 0 0 0 0 0 0 0 0 0 0 0 0 0 0 0 0 0 0 0 0 0 0 0 0
0 0 0 0 0 0 0 0 0 0 0 0 0 0 0 0 0 0 0 0 0 0 0 0 0 0 0 0 0 0 0 0 0 0 0 0 0 0 0 0 0 0 0
0 0 0 0 0 0 0 0 0 0 0 0 0 0 0 0 0 0 0 0 0 0 0 0 0 0 0 0 0 0 0 0 0 0 0 0 0 0 0 0 0 0 0
0 0 0 0 0 0 0 0 0 0 0 0 0 0 0 0 0 0 0 0 0 0 0 0 0 0 0 0 0 0 0 0 0 0 0 0 0 0 0 0 0 0 0
0 0 0 0 0 0 0 0 0 0 0 0 0 0 0 0 0 0 0 0 0 0 0 0 0 0 0 0 0 0 0 0 0 0 0 0 0 0 0 0 0 0 0
0 0 0 0 0 0 0 0 0 0 0 0 0 0 0 0 0 0 0 0 0 0 0 0 0 0 0 0 0 0 0 0 0 0 0 0 0 0 0 0 0 0 0
0 0 0 0 0 0 -0 0 0 0 0 0 0 0 0 0 0 0 -0 -0 -0 -0 0 0 0 0 0 0 0 0 0 0 0 0 0 0 0 0 0 0 0 0 0
0 0 0 0 -0 -0 0 0 0 0 0 0 0 0 0 0 -0 -0 -0 -0 -0 -0 -0 0 0 0 0 0 0 0 0 0 0 0 0 0 0 0 0 0 0 0 0
-0 -0 -0 -0 -0 -0 -0 0 0 0 0 0 0 0 0 0 -0 0 -0 -0 0 0 0 0 0 0 -0 0 0 0 0 0 0 0 0 0 0 0 0 0 0 0 0
0 0 -0 -0 -0 -0 -0 0 0 0 0 0 0 0 0 -0 -0 0 0 0 -0 -0 0 -0 0 -0 0 0 0 0 0 0 0 0 0 0 0 0 0 0 0 0 0
0 0 -0 0 -0 -0 0 0 0 0 0 0 0 0 0 -0 0 -0 0 0 -0 -0 0 -0 0 -0 0 0 0 0 0 0 0 0 0 0 0 0 0 0 0 0 0
-0 -0 -0 -0 -0 -0 0 0 0 0 0 0 0 0 -0 0 0 0 0 0 -0 -0 0 -0 0 0 -0 0 0 0 0 0 0 0 0 0 0 0 0 0 0 0 0
-0 0 -0 -0 0 0 0 0 0 0 0 0 0 0 -0 -0 -0 0 -0 0 -0 0 0 -0 0 0 0 0 0 0 0 0 0 0 0 0 0 0 0 0 0 0 0
-0 0 -0 -0 0 0 0 0 0 0 0 0 0 0 -0 0 -0 -0 -0 -0 -0 0 -0 0 -0 0 0 0 0 0 0 0 0 0 0 0 0 0 0 0 0 0 0
-0 -0 0 -0 0 0 0 0 0 0 0 0 0 -0 -0 -0 -0 -0 -0 -0 -0 -0 -0 -0 0 0 0 0 0 0 0 0 0 0 0 0 0 0 0 0 0 0 0
0 -0 -0 0 0 0 0 0 0 0 0 0 0 0 -0 -0 -0 -0 -0 -0 -0 -0 -0 -0 0 0 0 0 0 0 0 0 0 0 0 0 0 0 0 0 0 0 0
0 -0 -0 0 0 0 0 0 0 0 0 0 0 0 -0 -0 -0 -0 -0 -0 -0 -0 -0 -0 -0 -0 0 0 0 0 0 0 0 0 0 0 0 0 0 0 0 0 0
Wind_Speed_500mb
43 39 37 36 36 40 43 47 50 53 56 52 46 44 46 46 46 50 54 58 57 56 57 60 56 56 56 55 57 59 62 62 62 56 50 50 46 52 71 78 76 61 64
40 39 37 35 35 37 42 45 50 56 54 53 47 47 48 49 50 53 55 57 57 56 59 63 59 53 62 64 63 69 60 58 63 59 54 42 47 49 67 79 68 63 68
39 38 37 36 34 37 41 49 52 54 53 49 48 49 53 58 61 57 60 59 58 61 60 60 65 61 61 59 66 64 61 71 63 58 48 52 49 55 73 76 69 63 71
36 37 38 38 38 39 43 47 51 51 50 50 51 53 61 64 62 62 65 67 70 69 65 61 59 63 66 59 62 72 70 69 63 64 65 50 47 52 64 75 77 77 79
40 39 38 37 38 40 43 45 47 48 50 51 55 64 69 71 65 66 69 70 71 72 76 74 71 69 71 72 61 64 72 62 72 66 59 59 56 57 84 87 83 86 80
41 41 37 37 39 41 43 45 47 49 51 54 63 71 71 68 66 75 74 79 79 83 86 85 88 80 78 81 78 72 87 88 63 62 69 70 66 70 84 78 91 97 81
41 39 37 38 40 42 44 46 48 50 59 70 73 72 75 73 74 73 77 83 87 92 98 98 97 96 90 83 81 80 77 97 102 78 65 60 68 80 87 94 97 87 99
38 36 36 38 40 41 44 47 50 53 61 66 65 66 70 73 79 80 83 82 82 94 89 91 97 100 99 95 89 83 83 76 113 109 93 73 41 85 74 71 97 88 91
32 32 33 35 39 42 44 47 51 57 58 64 65 72 74 80 81 79 77 84 92 89 99 94 93 99 100 95 89 92 89 83 73 113 105 83 64 81 58 88 96 102 80
26 28 30 32 36 42 49 50 55 62 65 62 68 69 74 80 76 80 78 78 84 83 88 99 104 105 101 96 97 93 94 89 72 70 107 97 69 67 79 77 88 103 99
22 23 26 30 38 46 47 51 55 54 58 62 70 67 68 71 74 70 69 75 88 98 107 110 99 98 97 97 97 97 96 82 74 72 77 96 94 70 97 87 86 89 101
16 19 24 33 37 37 41 45 47 50 55 58 61 64 60 62 61 66 77 84 89 90 96 96 98 87 93 87 87 93 91 86 68 72 76 90 90 100 106 96 95 78 73
15 24 30 30 29 32 39 42 45 44 50 56 58 66 71 66 71 78 86 92 95 99 103 104 102 93 79 83 76 83 85 94 84 84 84 80 94 100 100 91 93 93 98
19 20 21 25 28 32 36 36 41 44 51 60 69 81 88 86 84 86 90 94 97 99 100 95 94 91 71 86 84 87 92 97 91 102 89 71 91 88 110 117 110 108 96
14 17 19 21 28 33 34 39 41 43 53 71 69 68 75 85 84 82 81 91 94 92 79 87 90 84 70 87 87 90 96 97 98 98 84 76 94 106 109 114 113 101 105
11 14 18 24 27 31 38 41 39 52 60 54 41 51 61 64 70 73 78 81 77 64 62 60 56 51 63 87 98 93 97 100 103 93 75 86 103 111 109 110 111 110 105
11 15 19 22 27 32 40 43 56 64 62 52 44 41 46 55 59 64 66 68 56 50 61 58 27 30 57 76 94 96 101 98 101 89 82 92 106 112 115 112 113 112 107
10 21 21 22 25 33 38 45 48 64 71 67 49 44 47 48 50 53 64 57 58 56 55 55 7 8 47 64 94 89 102 94 104 97 87 104 111 118 116 115 113 115 109
16 16 22 21 23 31 35 40 50 58 59 60 60 56 56 52 47 60 64 65 62 56 56 56 7 23 44 60 75 88 88 93 92 97 106 116 112 119 114 112 115 114 115
18 31 27 21 22 28 36 45 50 52 54 55 56 61 62 59 67 68 72 74 69 61 55 52 28 38 43 59 77 83 97 95 102 106 108 110 113 112 117 114 113 118 113
12 15 29 19 22 34 38 42 45 48 52 53 53 51 51 61 67 69 76 77 76 66 53 49 38 54 46 60 83 83 99 96 102 111 110 110 115 111 113 112 115 111 110
12 12 19 17 22 33 38 43 49 51 54 56 54 54 57 61 64 68 74 79 80 70 53 41 39 42 63 67 75 90 94 97 100 105 109 109 109 109 108 107 107 109 107
12 15 17 14 21 32 37 42 49 57 61 62 60 60 64 63 69 70 76 79 81 79 67 52 40 29 39 63 80 80 93 92 96 97 100 106 107 107 106 107 108 111 108
14 15 19 15 17 29 37 45 49 51 58 65 64 66 69 69 72 73 75 80 82 81 80 72 52 36 22 35 60 73 75 74 76 79 84 94 94 90 93 98 101 102 104
17 19 22 18 14 22 33 40 45 50 53 61 69 74 74 75 74 73 77 79 81 83 82 82 79 65 46 30 20 36 60 62 60 58 69 77 82 88 92 94 100 105 106
20 22 23 20 16 24 35 38 44 49 54 58 61 65 70 75 76 75 76 79 82 82 80 80 79 77 78 66 46 30 16 33 57 67 64 65 71 76 80 82 90 100 103
Wind_Direction_500mb
215 219 231 237 249 263 273 283 290 296 298 293 287 283 283 282 280 278 278 278 273 264 260 262 263 258 258 260 259 260 256 258 265 264 269 264 263 247 226 210 220 215 204
219 225 235 244 251 260 273 282 288 293 292 290 283 280 279 278 275 273 274 275 270 269 269 270 264 260 257 260 258 255 255 256 257 264 256 252 246 246 227 213 215 213 204
227 232 239 247 254 264 273 283 288 290 288 284 280 278 277 273 276 275 275 275 275 269 267 268 265 265 260 257 251 255 259 252 255 262 254 249 244 237 201 209 213 214 207
232 237 242 250 259 267 276 283 288 289 285 282 280 277 275 274 274 272 272 272 273 270 269 271 266 266 268 263 257 250 253 253 248 252 251 251 236 223 214 197 194 204 198
240 243 249 256 265 274 280 284 284 282 282 281 279 276 275 277 274 271 275 276 274 269 268 272 274 263 259 260 259 258 251 252 249 243 244 238 227 212 196 194 208 196 195
241 246 253 260 267 274 279 282 283 283 281 278 275 280 282 277 273 278 275 274 269 266 265 269 272 270 267 266 263 264 243 238 237 241 237 235 225 217 212 209 198 189 180
239 247 255 264 272 278 282 281 283 284 282 287 291 289 285 280 281 281 276 273 270 270 270 272 271 270 270 263 265 269 261 238 235 233 235 233 219 222 214 203 213 218 204
237 248 258 268 274 278 282 282 284 286 287 291 289 285 282 282 285 284 283 281 274 271 270 268 268 266 266 265 263 261 255 254 230 234 230 230 245 214 220 229 216 207 201
240 253 266 273 279 284 284 284 284 288 290 289 286 285 287 288 289 286 283 279 277 273 274 274 269 268 266 263 255 256 252 244 242 228 228 224 224 217 224 212 198 193 191
246 259 267 281 284 285 285 293 290 293 294 290 287 288 289 290 292 287 286 281 279 278 278 280 276 271 267 257 254 251 243 237 235 224 229 226 222 228 220 227 215 199 202
246 268 280 285 282 291 296 295 297 296 292 291 292 296 295 296 297 297 294 285 281 279 278 280 274 274 265 258 253 247 242 233 227 222 217 223 223 222 214 223 224 218 208
269 282 280 283 294 297 297 299 297 296 297 299 300 299 295 294 292 288 290 297 294 284 278 282 287 279 269 262 251 241 234 229 220 213 212 210 211 216 205 215 213 219 226
278 279 294 302 303 300 299 300 303 304 301 302 300 299 300 300 299 307 312 311 310 303 298 292 288 284 267 258 245 231 225 222 213 209 209 208 202 211 207 213 218 218 210
291 302 306 306 302 307 301 304 303 306 305 306 304 301 307 309 312 316 313 311 307 304 303 301 293 284 267 246 236 224 219 215 207 205 209 205 207 205 202 205 204 203 202
307 310 313 311 309 311 309 303 308 311 306 306 307 307 308 308 312 312 315 312 310 310 306 294 292 271 243 228 220 215 210 210 204 204 204 203 199 196 194 197 197 201 196
319 317 317 317 316 312 310 316 315 308 319 323 312 310 309 310 316 321 314 312 318 318 322 311 296 277 237 212 201 204 200 203 200 202 198 190 190 189 186 186 194 196 192
334 331 319 320 313 319 325 324 322 327 335 338 335 322 323 330 327 322 323 322 325 337 346 352 287 280 217 201 191 194 197 198 197 194 194 189 189 184 185 183 186 188 190
344 338 336 321 325 327 323 331 326 335 340 342 345 346 349 346 336 342 344 341 347 351 357 6 316 203 168 172 180 185 197 195 196 199 198 187 178 178 179 182 182 193 196
357 352 344 338 335 328 333 332 339 342 347 348 349 360 2 2 3 6 360 9 5 3 359 13 152 147 161 165 171 183 189 194 182 184 179 179 180 182 179 178 186 198 195
5 2 4 350 342 342 343 349 350 352 357 359 1 3 6 11 18 11 13 12 12 10 11 14 66 178 144 144 156 155 157 167 173 171 170 177 180 179 181 182 191 190 195
12 3 0 4 1 357 3 6 7 7 9 10 10 13 20 20 20 20 22 21 19 16 18 24 48 161 168 158 154 156 161 166 167 179 183 180 180 181 188 195 197 194 193
25 16 7 13 8 21 25 24 23 23 23 21 18 22 28 29 30 28 30 30 27 24 27 31 45 103 162 174 166 171 172 173 179 176 178 183 184 185 183 187 188 187 191
26 24 16 17 32 32 31 32 32 33 33 32 29 29 34 33 35 34 36 35 36 35 38 44 43 64 131 155 179 177 181 181 184 188 187 182 180 186 190 187 185 188 192
36 50 26 25 16 33 33 34 34 33 37 39 38 38 39 38 40 40 41 39 41 42 44 46 52 54 71 145 160 175 193 194 195 193 192 190 191 195 196 197 196 197 195
46 40 34 25 22 20 25 27 35 36 41 44 45 45 43 43 43 43 45 44 42 45 48 52 55 59 63 71 126 160 174 178 179 183 189 192 193 196 198 198 197 194 193
53 44 36 28 49 40 43 43 48 48 46 45 45 44 42 43 44 45 45 47 45 45 48 51 54 61 65 63 65 76 117 184 181 185 189 191 194 196 198 199 200 199 196
Wind_Speed_850mb
43 39 37 36 36 40 43 47 50 53 56 52 46 44 46 46 46 50 54 58 57 56 57 60 56 56 56 55 57 59 62 62 62 56 50 50 46 52 71 78 76 61 64
40 39 37 35 35 37 42 45 50 56 54 53 47 47 48 49 50 53 55 57 57 56 59 63 59 53 62 64 63 69 60 58 63 59 54 42 47 49 67 79 68 63 68
39 38 37 36 34 37 41 49 52 54 53 49 48 49 53 58 61 57 60 59 58 61 60 60 65 61 61 59 66 64 61 71 63 58 48 52 49 55 73 76 69 63 71
36 37 38 38 38 39 43 47 51 51 50 50 51 53 61 64 62 62 65 67 70 69 65 61 59 63 66 59 62 72 70 69 63 64 65 50 47 52 64 75 77 77 79
40 39 38 37 38 40 43 45 47 48 50 51 55 64 69 71 65 66 69 70 71 72 76 74 71 69 71 72 61 64 72 62 72 66 59 59 56 57 84 87 83 86 80
41 41 37 37 39 41 43 45 47 49 51 54 63 71 71 68 66 75 74 79 79 83 86 85 88 80 78 81 78 72 87 88 63 62 69 70 66 70 84 78 91 97 81
41 39 37 38 40 42 44 46 48 50 59 70 73 72 75 73 74 73 77 83 87 92 98 98 97 96 90 83 81 80 77 97 102 78 65 60 68 80 87 94 97 87 99
38 36 36 38 40 41 44 47 50 53 61 66 65 66 70 73 79 80 83 82 82 94 89 91 97 100 99 95 89 83 83 76 113 109 93 73 41 85 74 71 97 88 91
32 32 33 35 39 42 44 47 51 57 58 64 65 72 74 80 81 79 77 84 92 89 99 94 93 99 100 95 89 92 89 83 73 113 105 83 64 81 58 88 96 102 80
26 28 30 32 36 42 49 50 55 62 65 62 68 69 74 80 76 80 78 78 84 83 88 99 104 105 101 96 97 93 94 89 72 70 107 97 69 67 79 77 88 103 99
22 23 26 30 38 46 47 51 55 54 58 62 70 67 68 71 74 70 69 75 88 98 107 110 99 98 97 97 97 97 96 82 74 72 77 96 94 70 97 87 86 89 101
16 19 24 33 37 37 41 45 47 50 55 58 61 64 60 62 61 66 77 84 89 90 96 96 98 87 93 87 87 93 91 86 68 72 76 90 90 100 106 96 95 78 73
15 24 30 30 29 32 39 42 45 44 50 56 58 66 71 66 71 78 86 92 95 99 103 104 102 93 79 83 76 83 85 94 84 84 84 80 94 100 100 91 93 93 98
19 20 21 25 28 32 36 36 41 44 51 60 69 81 88 86 84 86 90 94 97 99 100 95 94 91 71 86 84 87 92 97 91 102 89 71 91 88 110 117 110 108 96
14 17 19 21 28 33 34 39 41 43 53 71 69 68 75 85 84 82 81 91 94 92 79 87 90 84 70 87 87 90 96 97 98 98 84 76 94 106 109 114 113 101 105
11 14 18 24 27 31 38 41 39 52 60 54 41 51 61 64 70 73 78 81 77 64 62 60 56 51 63 87 98 93 97 100 103 93 75 86 103 111 109 110 111 110 105
11 15 19 22 27 32 40 43 56 64 62 52 44 41 46 55 59 64 66 68 56 50 61 58 27 30 57 76 94 96 101 98 101 89 82 92 106 112 115 112 113 112 107
10 21 21 22 25 33 38 45 48 64 71 67 49 44 47 48 50 53 64 57 58 56 55 55 7 8 47 64 94 89 102 94 104 97 87 104 111 118 116 115 113 115 109
16 16 22 21 23 31 35 40 50 58 59 60 60 56 56 52 47 60 64 65 62 56 56 56 7 23 44 60 75 88 88 93 92 97 106 116 112 119 114 112 115 114 115
18 31 27 21 22 28 36 45 50 52 54 55 56 61 62 59 67 68 72 74 69 61 55 52 28 38 43 59 77 83 97 95 102 106 108 110 113 112 117 114 113 118 113
12 15 29 19 22 34 38 42 45 48 52 53 53 51 51 61 67 69 76 77 76 66 53 49 38 54 46 60 83 83 99 96 102 111 110 110 115 111 113 112 115 111 110
12 12 19 17 22 33 38 43 49 51 54 56 54 54 57 61 64 68 74 79 80 70 53 41 39 42 63 67 75 90 94 97 100 105 109 109 109 109 108 107 107 109 107
12 15 17 14 21 32 37 42 49 57 61 62 60 60 64 63 69 70 76 79 81 79 67 52 40 29 39 63 80 80 93 92 96 97 100 106 107 107 106 107 108 111 108
14 15 19 15 17 29 37 45 49 51 58 65 64 66 69 69 72 73 75 80 82 81 80 72 52 36 22 35 60 73 75 74 76 79 84 94 94 90 93 98 101 102 104
17 19 22 18 14 22 33 40 45 50 53 61 69 74 74 75 74 73 77 79 81 83 82 82 79 65 46 30 20 36 60 62 60 58 69 77 82 88 92 94 100 105 106
20 22 23 20 16 24 35 38 44 49 54 58 61 65 70 75 76 75 76 79 82 82 80 80 79 77 78 66 46 30 16 33 57 67 64 65 71 76 80 82 90 100 103
Wind_Direction_850mb
215 219 231 237 249 263 273 283 290 296 298 293 287 283 283 282 280 278 278 278 273 264 260 262 263 258 258 260 259 260 256 258 265 264 269 264 263 247 226 210 220 215 204
219 225 235 244 251 260 273 282 288 293 292 290 283 280 279 278 275 273 274 275 270 269 269 270 264 260 257 260 258 255 255 256 257 264 256 252 246 246 227 213 215 213 204
227 232 239 247 254 264 273 283 288 290 288 284 280 278 277 273 276 275 275 275 275 269 267 268 265 265 260 257 251 255 259 252 255 262 254 249 244 237 201 209 213 214 207
232 237 242 250 259 267 276 283 288 289 285 282 280 277 275 274 274 272 272 272 273 270 269 271 266 266 268 263 257 250 253 253 248 252 251 251 236 223 214 197 194 204 198
240 243 249 256 265 274 280 284 284 282 282 281 279 276 275 277 274 271 275 276 274 269 268 272 274 263 259 260 259 258 251 252 249 243 244 238 227 212 196 194 208 196 195
241 246 253 260 267 274 279 282 283 283 281 278 275 280 282 277 273 278 275 274 269 266 265 269 272 270 267 266 263 264 243 238 237 241 237 235 225 217 212 209 198 189 180
239 247 255 264 272 278 282 281 283 284 282 287 291 289 285 280 281 281 276 273 270 270 270 272 271 270 270 263 265 269 261 238 235 233 235 233 219 222 214 203 213 218 204
237 248 258 268 274 278 282 282 284 286 287 291 289 285 282 282 285 284 283 281 274 271 270 268 268 266 266 265 263 261 255 254 230 234 230 230 245 214 220 229 216 207 201
240 253 266 273 279 284 284 284 284 288 290 289 286 285 287 288 289 286 283 279 277 273 274 274 269 268 266 263 255 256 252 244 242 228 228 224 224 217 224 212 198 193 191
246 259 267 281 284 285 285 293 290 293 294 290 287 288 289 290 292 287 286 281 279 278 278 280 276 271 267 257 254 251 243 237 235 224 229 226 222 228 220 227 215 199 202
246 268 280 285 282 291 296 295 297 296 292 291 292 296 295 296 297 297 294 285 281 279 278 280 274 274 265 258 253 247 242 233 227 222 217 223 223 222 214 223 224 218 208
269 282 280 283 294 297 297 299 297 296 297 299 300 299 295 294 292 288 290 297 294 284 278 282 287 279 269 262 251 241 234 229 220 213 212 210 211 216 205 215 213 219 226
278 279 294 302 303 300 299 300 303 304 301 302 300 299 300 300 299 307 312 311 310 303 298 292 288 284 267 258 245 231 225 222 213 209 209 208 202 211 207 213 218 218 210
291 302 306 306 302 307 301 304 303 306 305 306 304 301 307 309 312 316 313 311 307 304 303 301 293 284 267 246 236 224 219 215 207 205 209 205 207 205 202 205 204 203 202
307 310 313 311 309 311 309 303 308 311 306 306 307 307 308 308 312 312 315 312 310 310 306 294 292 271 243 228 220 215 210 210 204 204 204 203 199 196 194 197 197 201 196
319 317 317 317 316 312 310 316 315 308 319 323 312 310 309 310 316 321 314 312 318 318 322 311 296 277 237 212 201 204 200 203 200 202 198 190 190 189 186 186 194 196 192
334 331 319 320 313 319 325 324 322 327 335 338 335 322 323 330 327 322 323 322 325 337 346 352 287 280 217 201 191 194 197 198 197 194 194 189 189 184 185 183 186 188 190
344 338 336 321 325 327 323 331 326 335 340 342 345 346 349 346 336 342 344 341 347 351 357 6 316 203 168 172 180 185 197 195 196 199 198 187 178 178 179 182 182 193 196
357 352 344 338 335 328 333 332 339 342 347 348 349 360 2 2 3 6 360 9 5 3 359 13 152 147 161 165 171 183 189 194 182 184 179 179 180 182 179 178 186 198 195
5 2 4 350 342 342 343 349 350 352 357 359 1 3 6 11 18 11 13 12 12 10 11 14 66 178 144 144 156 155 157 167 173 171 170 177 180 179 181 182 191 190 195
12 3 0 4 1 357 3 6 7 7 9 10 10 13 20 20 20 20 22 21 19 16 18 24 48 161 168 158 154 156 161 166 167 179 183 180 180 181 188 195 197 194 193
25 16 7 13 8 21 25 24 23 23 23 21 18 22 28 29 30 28 30 30 27 24 27 31 45 103 162 174 166 171 172 173 179 176 178 183 184 185 183 187 188 187 191
26 24 16 17 32 32 31 32 32 33 33 32 29 29 34 33 35 34 36 35 36 35 38 44 43 64 131 155 179 177 181 181 184 188 187 182 180 186 190 187 185 188 192
36 50 26 25 16 33 33 34 34 33 37 39 38 38 39 38 40 40 41 39 41 42 44 46 52 54 71 145 160 175 193 194 195 193 192 190 191 195 196 197 196 197 195
46 40 34 25 22 20 25 27 35 36 41 44 45 45 43 43 43 43 45 44 42 45 48 52 55 59 63 71 126 160 174 178 179 183 189 192 193 196 198 198 197 194 193
53 44 36 28 49 40 43 43 48 48 46 45 45 44 42 43 44 45 45 47 45 45 48 51 54 61 65 63 65 76 117 184 181 185 189 191 194 196 198 199 200 199 196